Location: Mentone
(34.5413°N, 85.5351°W)
Time: 11:02:46
(UTC-05:00)

Tiros 1 despin weight - Visible Passes

Search period start: 28 March 2015 00:00
Search period end: 07 April 2015 00:00
Orbit: 599 x 648 km, 48.2° (Epoch: 28 March)

Date Brightness Start Highest point End Pass type
(mag) Time Alt. Az. Time Alt. Az. Time Alt. Az.
28 Mar ? 20:59:54 10° W 21:04:07 35° NNW 21:05:47 26° NNE visible
29 Mar ? 19:35:59 10° SW 19:40:35 90° SE 19:45:08 10° NE visible
29 Mar ? 21:19:05 10° WNW 21:22:44 23° NNW 21:23:57 20° N visible
30 Mar ? 19:54:31 10° WSW 19:58:57 47° NNW 20:03:20 10° NE visible
30 Mar ? 21:38:30 10° NW 21:41:29 17° NNW 21:41:55 17° N visible
31 Mar ? 20:13:31 10° W 20:17:29 28° NNW 20:21:22 10° NE visible
31 Mar ? 21:57:50 10° NW 21:59:44 14° NNW 21:59:44 14° NNW visible
01 Apr ? 20:32:50 10° WNW 20:36:10 19° NNW 20:39:25 10° NNE visible
01 Apr ? 22:16:44 10° NNW 22:17:25 12° NNW 22:17:25 12° NNW visible
02 Apr ? 20:52:14 10° NW 20:54:57 15° N 20:57:37 10° NNE visible
03 Apr ? 19:27:10 10° WNW 19:30:50 23° NNW 19:34:26 10° NNE visible
03 Apr ? 21:11:21 10° NNW 21:13:48 14° N 21:15:21 12° NNE visible
04 Apr ? 19:46:33 10° NW 19:49:34 17° NNW 19:52:32 10° NNE visible
04 Apr ? 21:29:57 10° NNW 21:32:38 15° N 21:32:49 15° N visible
05 Apr ? 20:05:49 10° NW 20:08:23 14° N 20:10:54 10° NNE visible
05 Apr ? 21:48:08 10° NNW 21:50:15 18° N 21:50:15 18° N visible
06 Apr ? 20:24:40 10° NNW 20:27:13 15° N 20:29:46 10° NE visible
06 Apr ? 22:06:09 10° NW 22:07:40 18° NNW 22:07:40 18° NNW visible
